Temp
9 9 9 9 9 9 9 9 9 9 9 8 8 8 8 8 8 8 8 8 8 8 8 8 8 8 8 8 7 7 7 7 7 7 7 6 6 6 5 5 4 4 4 4 4 4 4 4 5 5 5 6
9 9 9 9 9 9 9 9 8 8 8 8 8 8 8 8 8 8 7 8 8 8 8 8 8 7 7 7 7 7 7 7 7 7 7 7 6 6 6 5 5 4 4 3 4 4 4 4 5 5 5 5
8 8 8 9 9 8 8 8 8 8 8 8 8 8 8 8 8 8 8 8 7 7 7 7 7 7 7 7 7 7 7 7 7 7 7 7 7 6 6 5 5 4 4 3 3 3 3 4 4 4 5 5
8 8 8 8 8 8 8 8 8 8 8 8 8 8 8 8 8 8 8 8 7 7 7 7 7 7 7 7 7 7 7 7 7 6 6 6 6 6 6 6 5 4 4 3 3 3 3 3 4 4 5 5
8 8 8 8 8 8 8 8 8 8 8 8 8 8 8 8 8 8 8 8 7 7 7 7 7 7 7 7 7 7 7 6 6 6 6 6 6 6 6 6 5 5 4 3 3 3 3 3 3 4 4 4
8 8 8 8 8 8 8 8 8 8 8 8 8 8 8 8 8 8 8 8 7 7 7 7 7 7 7 7 7 6 6 6 6 6 6 6 6 6 6 6 6 5 5 4 3 3 2 3 3 3 4 4
8 8 8 8 8 8 8 8 8 8 8 8 8 8 8 8 8 8 8 7 8 8 7 7 7 7 7 7 7 7 7 7 6 6 6 6 6 6 6 6 6 5 5 4 3 3 2 2 3 3 3 4
8 8 8 8 7 7 7 8 8 8 8 8 8 8 8 8 8 8 7 7 7 7 7 7 7 7 7 7 7 7 7 7 6 6 6 6 6 6 5 5 5 5 5 4 3 3 2 2 2 2 3 3
8 7 7 7 7 7 7 8 8 8 8 8 8 7 7 7 7 7 7 7 7 7 7 7 7 7 7 7 7 7 7 6 6 6 6 6 5 5 5 5 5 5 4 4 3 2 2 2 2 2 2 2
7 7 7 7 7 7 8 8 8 8 8 7 7 7 7 7 7 7 7 7 7 7 7 7 7 7 7 6 6 6 6 6 6 6 6 5 5 5 4 4 4 4 4 3 3 2 2 1 1 1 1 2
7 7 7 7 8 8 8 8 8 7 7 7 7 7 7 7 7 7 7 7 7 6 6 6 6 6 6 6 6 6 6 6 6 5 5 5 5 4 4 4 4 4 4 3 3 2 2 1 1 1 1 1
7 7 7 8 8 8 8 7 7 7 7 7 7 7 7 7 7 7 6 6 6 6 6 6 6 6 6 6 6 6 6 5 5 5 5 5 4 4 4 3 3 3 4 3 2 2 1 1 1 1 0 0
7 7 7 8 8 8 7 7 7 7 7 7 7 7 7 7 7 6 6 6 6 6 6 6 5 5 5 5 5 5 5 5 5 5 5 4 4 4 3 3 3 3 2 3 2 1 0 -0 -0 -0 -0 -1
7 7 8 8 7 7 7 7 7 7 6 6 6 6 6 6 6 6 6 6 6 6 5 5 5 5 5 5 5 5 5 5 5 4 4 4 4 4 3 3 3 2 1 1 1 -0 -1 -1 -1 -1 -1 -1
7 7 7 7 7 7 6 6 6 6 6 6 6 6 6 6 6 6 6 6 6 5 5 5 5 5 5 5 5 5 5 5 5 4 4 4 3 3 3 3 2 2 0 0 1 -0 -2 -2 -3 -2 -2 -2
7 7 7 7 6 6 6 6 6 6 6 6 6 6 6 6 6 6 6 5 5 5 5 5 5 5 5 5 5 5 5 5 4 4 4 3 3 3 3 2 2 1 -0 -1 -0 -0 -1 -3 -3 -3 -3 -2
7 7 7 6 6 6 6 6 6 6 6 6 6 6 6 5 5 5 5 5 5 5 5 5 5 5 5 5 5 5 5 4 4 4 4 3 3 3 2 2 2 1 -0 -1 -0 -1 -2 -2 -3 -3 -4 -3
6 6 6 6 6 6 6 6 6 6 6 6 6 5 5 5 5 5 5 5 5 5 5 5 5 5 5 4 4 4 4 4 4 4 3 3 3 2 2 2 2 1 -0 -1 -1 -1 -1 -2 -3 -3 -3 -3
6 6 6 6 6 6 6 6 6 6 6 5 5 5 5 5 5 5 4 5 5 5 5 5 5 4 4 4 4 4 4 4 4 3 3 3 3 2 2 1 1 1 0 -1 -1 -1 -1 -2 -2 -3 -3 -3
6 5 5 5 5 5 5 5 6 6 5 5 5 5 5 5 4 4 4 4 4 4 4 4 4 4 4 4 4 4 4 4 4 3 3 3 2 2 2 1 1 0 -0 -0 -1 -1 -1 -1 -2 -2 -2 -2
6 5 5 5 5 5 5 5 5 5 5 5 5 4 4 4 4 4 4 4 4 4 4 4 4 4 4 4 4 4 4 4 4 3 3 2 2 2 1 1 1 0 -0 -0 -0 -1 -1 -1 -2 -2 -2 -2
6 6 5 5 5 5 5 5 5 5 5 5 4 4 4 4 4 4 4 4 4 4 4 4 4 4 4 4 4 3 3 3 3 3 3 2 2 2 1 1 0 0 -0 -0 -0 -1 -1 -1 -1 -2 -2 -3
6 6 5 5 5 5 5 5 5 5 4 4 4 4 4 4 4 4 4 4 4 3 4 4 4 4 4 3 3 3 3 3 3 3 3 2 2 2 1 1 0 -0 -0 -0 -0 -1 -2 -1 -1 -1 -2 -2
5 5 5 5 5 5 5 4 4 4 4 4 4 4 4 4 4 4 4 3 3 3 3 3 3 3 3 3 3 3 3 3 3 3 3 2 2 2 1 1 0 -0 -0 -0 -1 -1 -2 -2 -1 -1 -2 -2
5 5 5 5 5 5 5 4 4 4 4 4 4 4 3 4 4 4 3 3 3 3 3 3 3 3 3 3 3 3 3 3 3 3 2 2 2 2 1 1 1 0 0 -0 -1 -0 -1 -2 -2 -1 -2 -2
5 5 5 5 5 5 5 4 4 3 3 3 3 3 3 3 3 3 3 3 3 3 3 3 3 3 3 3 3 2 2 3 3 3 2 2 2 2 1 1 1 1 0 -0 -1 -1 -1 -2 -3 -2 -2 -3
5 5 5 5 5 5 5 4 4 3 3 3 3 3 3 3 3 3 3 3 3 3 3 3 3 3 2 2 2 2 2 2 2 3 2 2 2 2 1 1 1 1 0 -0 -1 -1 -2 -3 -3 -3 -3 -4
5 5 5 5 5 5 4 4 4 3 3 3 3 3 3 3 3 3 3 3 3 3 2 2 2 2 2 2 2 2 2 2 2 2 2 2 2 1 1 1 1 0 0 -0 -1 -2 -3 -3 -3 -2 -3 -4
5 5 5 5 5 5 4 4 4 3 3 3 3 3 3 3 3 2 2 2 2 2 2 2 2 2 2 2 2 2 2 2 2 2 2 2 2 1 1 1 0 0 -0 -1 -1 -2 -3 -3 -3 -3 -3 -4
5 6 5 5 5 5 4 4 4 3 3 3 3 3 2 2 2 2 2 2 2 2 2 2 2 2 2 2 2 2 1 1 1 1 1 1 2 1 1 1 0 -0 -1 -1 -1 -1 -2 -3 -4 -4 -4 -5
5 5 5 5 5 5 4 4 4 3 3 3 3 3 2 2 2 2 2 2 2 2 2 2 2 1 1 1 1 1 1 1 1 1 1 1 1 1 1 0 0 -0 -1 -1 -2 -2 -2 -3 -4 -4 -5 -6
Height
1592 1591 1589 1588 1586 1584 1583 1581 1580 1578 1576 1575 1572 1571 1569 1567 1565 1563 1561 1560 1558 1556 1554 1552 1550 1548 1546 1544 1542 1540 1538 1536 1534 1532 1529 1527 1525 1522 1519 1517 1515 1513 1511 1509 1508 1506 1504 1503 1501 1499 1497 1495
1592 1590 1589 1587 1586 1585 1583 1581 1580 1578 1576 1574 1572 1570 1568 1567 1565 1563 1561 1559 1557 1555 1553 1551 1549 1547 1545 1543 1541 1539 1537 1535 1533 1531 1529 1527 1524 1522 1519 1517 1515 1513 1510 1509 1507 1506 1504 1502 1501 1499 1497 1495
1592 1590 1589 1587 1586 1584 1583 1581 1579 1577 1576 1574 1572 1570 1568 1567 1565 1563 1561 1559 1557 1555 1553 1551 1549 1547 1545 1543 1541 1538 1536 1534 1532 1530 1528 1526 1524 1522 1519 1517 1514 1512 1510 1508 1507 1505 1504 1502 1500 1499 1497 1495
1591 1590 1589 1587 1586 1584 1582 1581 1579 1578 1576 1574 1572 1571 1569 1567 1565 1563 1561 1558 1556 1554 1552 1550 1548 1546 1544 1542 1540 1538 1536 1534 1532 1530 1528 1526 1523 1521 1519 1517 1515 1512 1510 1508 1507 1505 1504 1502 1500 1498 1497 1495
1591 1590 1588 1587 1585 1584 1582 1581 1580 1578 1576 1575 1573 1571 1569 1566 1564 1562 1560 1558 1556 1554 1552 1550 1548 1546 1544 1543 1540 1538 1536 1534 1532 1530 1528 1525 1523 1521 1519 1517 1515 1512 1510 1508 1506 1505 1503 1501 1500 1498 1496 1495
1590 1589 1588 1587 1586 1584 1583 1582 1580 1578 1576 1574 1572 1570 1568 1566 1564 1562 1560 1559 1557 1555 1553 1551 1549 1547 1545 1543 1541 1539 1536 1534 1532 1530 1528 1525 1523 1521 1519 1517 1514 1512 1510 1508 1506 1504 1503 1501 1499 1498 1496 1494
1590 1589 1588 1587 1586 1585 1583 1582 1580 1577 1575 1573 1571 1570 1568 1566 1565 1563 1561 1560 1558 1556 1554 1552 1550 1547 1545 1543 1540 1538 1536 1534 1531 1529 1527 1525 1523 1520 1518 1516 1513 1511 1509 1507 1505 1504 1502 1501 1499 1497 1496 1494
1590 1589 1588 1587 1586 1585 1583 1581 1579 1577 1575 1573 1572 1570 1569 1567 1566 1564 1562 1560 1558 1556 1554 1551 1549 1547 1544 1542 1540 1538 1535 1533 1531 1528 1526 1524 1522 1520 1517 1515 1513 1511 1509 1507 1505 1503 1501 1500 1499 1497 1495 1494
1591 1589 1588 1587 1586 1584 1582 1580 1579 1577 1576 1574 1573 1571 1570 1568 1566 1564 1563 1560 1558 1556 1553 1551 1549 1546 1544 1542 1539 1537 1535 1533 1530 1528 1526 1523 1521 1519 1517 1515 1512 1510 1508 1506 1505 1503 1501 1500 1498 1496 1495 1493
1590 1589 1588 1586 1585 1583 1582 1580 1579 1578 1577 1575 1574 1572 1570 1569 1567 1565 1562 1560 1558 1556 1553 1551 1549 1546 1544 1542 1539 1537 1535 1533 1530 1528 1525 1523 1521 1519 1517 1514 1512 1510 1508 1506 1504 1503 1501 1499 1497 1496 1494 1492
1590 1588 1587 1586 1585 1583 1582 1581 1580 1579 1577 1576 1574 1572 1571 1569 1567 1565 1563 1561 1558 1556 1554 1551 1549 1547 1544 1542 1539 1537 1535 1533 1530 1528 1525 1523 1521 1519 1517 1514 1512 1510 1508 1506 1504 1502 1500 1499 1497 1495 1493 1492
1589 1588 1587 1586 1585 1584 1583 1582 1581 1579 1578 1576 1575 1572 1570 1569 1567 1565 1563 1561 1559 1556 1554 1552 1550 1547 1545 1542 1540 1538 1535 1533 1530 1528 1526 1523 1521 1519 1517 1514 1512 1510 1507 1506 1504 1502 1500 1498 1496 1494 1493 1491
1589 1588 1587 1586 1585 1585 1584 1583 1581 1579 1578 1576 1574 1572 1570 1569 1567 1565 1563 1561 1559 1557 1555 1552 1550 1547 1545 1543 1540 1538 1536 1533 1531 1528 1526 1523 1521 1519 1517 1514 1512 1510 1507 1505 1503 1502 1500 1498 1496 1494 1492 1491
1589 1588 1588 1587 1586 1585 1584 1583 1581 1579 1577 1575 1573 1571 1570 1569 1567 1565 1563 1561 1559 1557 1555 1552 1550 1548 1545 1543 1541 1538 1536 1533 1531 1528 1526 1524 1521 1519 1517 1514 1512 1510 1508 1505 1503 1501 1500 1498 1496 1494 1492 1490
1590 1589 1588 1587 1586 1585 1584 1582 1580 1578 1576 1574 1573 1572 1571 1569 1567 1565 1563 1561 1559 1557 1555 1552 1550 1548 1546 1544 1541 1538 1536 1533 1531 1529 1526 1524 1521 1519 1517 1515 1512 1510 1508 1506 1503 1502 1500 1498 1496 1494 1492 1490
1590 1589 1588 1587 1586 1585 1583 1581 1579 1578 1576 1575 1574 1572 1571 1569 1567 1565 1563 1561 1559 1557 1555 1553 1551 1548 1546 1544 1541 1539 1536 1534 1531 1529 1527 1524 1522 1519 1517 1515 1513 1510 1508 1506 1504 1502 1500 1498 1496 1494 1492 1490
1590 1589 1588 1587 1586 1585 1583 1581 1579 1577 1576 1575 1574 1572 1571 1569 1567 1565 1563 1561 1558 1556 1554 1552 1550 1548 1546 1543 1541 1539 1536 1533 1531 1529 1527 1524 1522 1520 1517 1515 1513 1511 1508 1506 1504 1502 1500 1498 1496 1494 1492 1490
1590 1589 1588 1587 1585 1584 1582 1580 1579 1577 1576 1575 1574 1572 1570 1569 1567 1565 1563 1560 1558 1556 1554 1552 1549 1547 1545 1543 1541 1539 1536 1533 1531 1528 1526 1524 1522 1520 1517 1515 1513 1511 1509 1506 1504 1502 1500 1498 1496 1494 1492 1490
1589 1588 1587 1586 1584 1583 1581 1580 1579 1577 1576 1575 1573 1572 1570 1568 1566 1564 1562 1559 1557 1555 1553 1551 1549 1547 1545 1543 1541 1538 1536 1533 1531 1528 1525 1524 1522 1520 1517 1515 1513 1511 1508 1506 1504 1501 1499 1498 1496 1494 1492 1489
1588 1587 1586 1585 1583 1582 1581 1580 1578 1577 1576 1574 1573 1571 1569 1567 1565 1563 1561 1559 1557 1555 1553 1551 1549 1546 1544 1542 1540 1538 1535 1533 1531 1528 1525 1523 1521 1519 1517 1515 1513 1511 1509 1506 1504 1501 1499 1497 1495 1493 1491 1489
1587 1586 1585 1584 1583 1581 1580 1579 1578 1576 1575 1574 1572 1570 1569 1567 1564 1562 1560 1559 1557 1555 1552 1550 1548 1546 1544 1542 1540 1538 1535 1533 1530 1528 1525 1523 1521 1519 1517 1515 1513 1511 1509 1506 1504 1501 1499 1497 1495 1493 1491 1489
1586 1585 1584 1583 1582 1581 1580 1578 1577 1576 1574 1573 1571 1570 1568 1566 1564 1562 1560 1558 1556 1554 1552 1550 1548 1546 1544 1542 1540 1537 1535 1533 1530 1528 1525 1523 1521 1519 1517 1515 1513 1511 1509 1506 1504 1501 1499 1496 1494 1492 1490 1488
1585 1584 1583 1582 1581 1580 1579 1577 1576 1575 1574 1572 1571 1569 1567 1565 1563 1561 1560 1558 1556 1554 1552 1550 1548 1546 1544 1541 1539 1537 1535 1533 1530 1528 1525 1523 1521 1519 1517 1515 1513 1511 1508 1506 1503 1501 1498 1496 1494 1492 1490 1488
1583 1582 1581 1580 1579 1578 1577 1576 1575 1574 1573 1571 1570 1568 1566 1564 1563 1561 1559 1557 1555 1554 1552 1550 1548 1546 1543 1541 1539 1537 1534 1532 1530 1527 1525 1523 1521 1519 1517 1515 1513 1511 1508 1506 1503 1501 1499 1496 1493 1491 1489 1487
1581 1580 1579 1579 1578 1577 1576 1575 1574 1573 1572 1570 1569 1567 1565 1563 1562 1560 1558 1557 1555 1553 1551 1549 1547 1545 1543 1541 1539 1536 1534 1531 1529 1527 1524 1522 1520 1518 1516 1514 1512 1510 1508 1505 1503 1501 1499 1495 1493 1491 1489 1488
1580 1579 1578 1577 1577 1576 1575 1574 1573 1572 1570 1569 1567 1566 1564 1562 1561 1559 1558 1556 1554 1552 1550 1548 1547 1545 1543 1541 1538 1536 1533 1531 1528 1526 1524 1522 1520 1517 1515 1513 1511 1509 1507 1505 1503 1500 1497 1496 1493 1490 1489 1487
1579 1578 1577 1576 1575 1574 1573 1572 1571 1570 1569 1567 1566 1564 1563 1561 1560 1558 1556 1555 1553 1551 1549 1547 1545 1544 1542 1540 1538 1536 1533 1530 1528 1525 1523 1521 1519 1517 1515 1513 1510 1508 1506 1504 1502 1500 1498 1497 1495 1491 1489 1487
1578 1576 1575 1574 1573 1572 1571 1570 1570 1568 1567 1566 1564 1562 1561 1560 1558 1557 1555 1553 1551 1549 1547 1546 1544 1542 1541 1539 1537 1535 1533 1530 1527 1525 1522 1520 1518 1517 1515 1512 1510 1507 1506 1503 1501 1500 1498 1497 1495 1494 1491 1488
1576 1575 1573 1572 1571 1570 1569 1568 1568 1566 1565 1564 1562 1561 1559 1558 1557 1555 1554 1552 1550 1548 1546 1544 1542 1541 1539 1538 1536 1534 1532 1529 1527 1524 1522 1519 1517 1515 1514 1512 1509 1507 1504 1503 1501 1500 1498 1497 1496 1494 1491 1488
1575 1573 1572 1570 1569 1568 1567 1567 1566 1564 1563 1562 1561 1559 1558 1557 1555 1554 1552 1550 1548 1546 1544 1543 1541 1539 1538 1536 1534 1532 1530 1528 1526 1524 1521 1518 1516 1514 1512 1510 1509 1506 1504 1502 1500 1499 1498 1497 1496 1493 1490 1489
1573 1572 1570 1569 1568 1567 1566 1565 1564 1563 1561 1560 1559 1557 1556 1555 1553 1551 1550 1548 1546 1544 1543 1541 1539 1538 1536 1534 1532 1530 1529 1527 1525 1523 1520 1518 1515 1513 1511 1509 1507 1506 1503 1501 1499 1497 1496 1495 1494 1492 1490 1488
Wind_Speed
19 20 21 21 20 20 20 20 20 20 21 21 22 23 24 24 25 25 25 26 26 27 28 28 28 29 29 29 29 29 29 29 29 29 30 30 30 29 29 28 27 25 24 24 22 23 23 22 23 21 21 22
18 19 18 18 18 18 19 19 19 20 21 22 23 24 25 25 25 26 26 27 27 28 28 29 29 30 30 30 30 30 30 30 29 29 30 30 30 30 30 29 27 26 24 21 19 20 22 21 23 23 22 23
17 16 16 16 17 17 18 19 20 21 22 23 24 25 25 26 26 27 27 28 28 29 29 29 29 30 30 30 30 31 31 30 30 30 30 30 30 30 29 28 27 26 23 21 19 20 22 21 22 22 21 22
15 14 15 16 17 17 19 19 20 21 22 23 24 25 26 27 28 29 29 30 31 30 30 30 30 31 31 31 31 31 31 31 31 31 31 30 30 30 29 28 27 25 21 20 19 19 21 21 21 20 21 22
13 14 15 16 17 17 19 19 20 21 23 25 26 27 27 29 30 31 31 32 32 32 32 32 32 31 31 31 30 30 30 31 31 31 30 30 30 29 28 27 26 24 21 20 18 18 19 20 20 20 21 22
13 15 15 16 16 17 18 19 21 23 25 26 27 29 30 31 31 31 31 32 31 31 31 31 31 30 30 30 30 30 30 29 29 29 29 29 29 28 27 27 26 25 22 20 18 17 18 19 19 19 21 22
14 14 14 15 16 17 18 20 22 25 26 28 29 29 30 30 30 30 30 30 30 30 29 29 29 29 30 30 31 31 31 31 30 30 30 29 29 29 28 28 27 26 24 22 19 18 18 18 18 18 20 21
13 13 14 15 15 17 19 21 24 25 26 27 28 28 28 28 28 29 29 29 29 29 29 29 30 30 30 31 31 31 32 32 32 32 32 31 31 30 30 29 28 27 24 23 21 20 19 19 19 18 19 20
12 13 14 14 16 18 20 22 24 24 25 25 25 25 26 27 27 28 28 28 29 29 29 30 30 30 31 31 31 32 32 33 33 33 33 33 32 31 30 29 28 27 25 24 22 22 21 20 18 18 18 19
12 13 14 15 16 18 20 21 22 22 22 22 23 24 25 26 27 28 28 29 29 29 30 30 30 31 31 32 32 32 33 33 33 33 33 33 33 32 31 30 28 27 25 24 23 22 22 20 19 19 18 18
13 13 14 15 16 17 18 19 19 19 20 20 21 23 24 26 27 28 28 29 29 29 30 30 31 31 32 32 33 33 33 33 34 34 34 33 33 32 31 30 28 27 25 24 23 23 22 22 21 21 19 18
12 13 13 13 14 15 15 15 16 17 18 19 20 22 24 25 26 27 27 28 28 29 29 30 31 31 32 33 33 33 34 34 34 34 34 33 33 32 31 30 29 27 26 24 23 22 23 22 23 22 19 17
12 11 11 11 11 11 12 12 14 15 16 17 19 21 23 24 25 26 26 27 27 28 29 30 31 32 33 34 34 34 35 35 34 34 33 33 33 32 31 30 29 27 25 24 23 21 22 22 22 23 20 17
10 9 9 7 7 8 9 11 12 13 15 17 19 21 21 22 23 24 25 26 27 27 29 30 32 33 34 34 35 35 36 35 35 34 33 32 32 32 31 30 29 26 22 22 23 21 21 21 21 23 21 18
8 7 6 5 5 7 8 10 12 14 16 17 18 18 19 20 21 23 24 24 25 26 28 30 31 33 34 34 35 36 36 35 34 34 33 32 32 31 30 29 28 25 19 19 21 21 20 20 20 22 21 19
7 6 6 5 6 7 8 10 12 13 15 15 15 16 17 18 19 20 21 22 24 25 27 29 30 32 33 34 35 35 35 35 34 33 32 31 31 30 30 29 27 25 19 18 21 21 20 20 19 20 20 21
8 7 7 7 7 8 9 10 11 12 13 13 13 14 15 16 18 19 20 21 22 24 26 28 29 31 32 33 34 34 35 35 34 33 32 31 31 30 29 28 27 25 20 18 21 21 20 20 19 19 20 21
8 8 8 8 8 9 10 11 11 12 12 13 13 13 14 15 16 18 19 20 22 23 25 26 28 30 31 32 33 34 34 35 35 34 32 31 30 29 29 28 27 26 22 19 20 22 21 21 20 20 21 22
8 8 9 9 10 10 11 12 12 12 12 13 13 13 14 14 15 17 18 20 21 22 23 25 27 28 30 32 33 34 34 34 34 33 33 31 30 29 29 28 27 27 24 22 22 23 22 21 21 21 22 22
8 9 10 10 11 11 12 12 12 12 12 13 14 14 14 14 15 16 18 19 20 21 22 24 25 27 29 31 32 33 33 33 33 32 32 31 30 29 28 28 27 26 25 24 23 23 22 22 22 22 22 22
9 10 11 11 12 12 12 13 13 13 13 13 14 14 14 15 15 16 17 18 19 20 21 23 24 26 28 30 31 31 32 32 32 32 31 31 30 29 28 28 27 26 25 25 24 23 23 23 23 23 22 22
9 10 11 11 12 12 13 13 14 14 14 14 14 14 14 14 15 15 16 17 18 19 21 22 23 24 26 28 30 30 30 30 31 31 30 30 30 29 28 27 26 26 26 26 25 23 22 23 23 22 22 21
10 10 11 11 12 12 13 14 14 15 14 14 14 14 14 14 15 15 15 16 17 19 20 21 22 23 25 27 28 29 29 29 29 30 29 29 28 28 27 26 26 25 25 25 25 24 23 23 22 21 21 20
12 12 12 12 13 13 13 14 14 14 15 14 14 14 14 14 15 15 15 16 17 18 19 20 22 22 24 26 27 28 27 28 28 28 28 27 27 27 26 26 25 25 25 24 24 24 22 22 21 20 20 18
14 14 14 14 14 14 14 14 14 14 15 15 15 15 14 15 15 15 15 16 17 18 19 20 21 22 24 25 26 27 26 26 27 27 27 27 27 27 26 26 25 26 25 25 24 23 23 20 19 21 19 17
15 14 14 15 15 15 14 14 14 15 15 15 15 15 15 15 16 16 16 16 17 18 19 20 21 22 23 24 25 25 25 25 25 25 26 26 27 26 26 25 26 26 25 25 25 24 23 16 15 22 19 20
16 15 15 15 15 16 16 15 15 15 16 16 16 16 16 16 16 16 16 17 17 18 19 20 21 21 22 23 24 24 24 24 23 23 24 24 25 25 26 25 26 26 26 26 25 22 19 13 13 15 15 21
15 16 15 15 16 16 16 16 16 16 16 16 16 17 17 17 17 17 17 18 18 18 19 19 20 21 22 23 24 24 24 24 23 23 22 23 23 24 24 24 25 25 25 25 24 21 17 13 11 7 13 23
15 15 15 15 16 16 16 16 16 17 17 17 18 18 18 18 18 18 18 18 19 19 19 20 20 21 21 22 23 24 24 24 24 23 22 21 22 22 23 23 23 23 23 23 22 21 16 10 7 10 19 22
14 14 15 15 16 16 17 17 17 18 19 19 19 19 19 18 19 19 19 19 20 20 20 20 21 21 21 22 23 23 23 24 24 24 23 21 21 21 21 22 22 22 22 22 21 20 18 13 11 15 20 15
13 13 14 15 15 16 17 17 18 19 19 20 21 21 20 20 20 19 20 20 20 21 21 21 22 22 22 22 22 23 23 23 23 24 23 22 21 20 19 20 21 20 20 20 20 19 19 18 16 16 16 14
Wind_Direction
354 356 357 359 2 4 5 7 11 15 18 19 20 20 20 20 18 18 17 15 14 13 12 11 10 9 8 7 6 4 4 4 3 0 359 359 358 355 353 351 346 340 335 333 340 347 346 340 341 341 333 330
356 358 360 4 7 8 11 16 19 21 22 23 22 22 21 20 18 18 16 15 14 12 11 9 8 7 6 5 3 2 2 1 0 359 358 358 358 357 356 354 351 349 345 340 339 345 345 338 342 346 336 331
359 2 7 11 12 15 20 23 24 24 25 25 25 24 23 21 20 19 17 16 14 12 11 9 8 7 5 4 3 1 0 359 359 358 357 356 357 357 357 355 353 352 350 347 342 342 342 336 338 342 337 336
5 10 15 17 20 24 26 27 27 29 29 28 27 26 24 22 21 19 17 16 14 12 11 10 9 7 6 4 3 1 360 358 357 357 356 355 355 355 356 355 354 353 349 349 348 345 343 341 338 335 338 342
15 19 21 23 27 29 30 31 32 33 32 30 28 26 23 21 19 17 15 14 12 11 10 9 8 7 6 5 3 2 0 358 357 356 354 354 354 354 354 353 352 354 352 350 350 348 344 343 342 337 337 341
22 24 26 28 32 33 35 35 36 35 32 29 26 22 19 18 16 13 12 12 10 9 8 7 7 5 5 5 4 3 2 360 358 356 354 353 353 352 352 351 351 352 353 353 349 344 342 341 341 339 336 336
26 27 31 34 36 37 38 37 36 33 29 25 22 18 16 15 13 11 11 9 8 7 7 6 5 4 4 4 3 2 1 0 359 357 356 354 354 353 352 352 352 351 352 352 349 343 340 339 336 335 333 333
30 33 36 37 39 40 39 37 33 28 25 21 18 16 15 14 12 11 10 9 7 7 7 6 5 5 4 4 3 2 1 0 359 358 357 356 355 354 353 353 353 352 351 350 349 346 342 339 335 330 325 325
35 38 39 39 41 41 39 34 29 24 21 19 18 17 16 14 13 13 12 10 10 9 9 9 8 8 7 6 5 4 3 2 360 358 358 357 356 356 355 353 353 352 351 349 347 345 343 342 337 331 324 318
37 38 39 40 41 40 36 29 23 21 20 20 19 18 17 16 16 15 14 12 11 11 11 11 11 10 10 8 7 6 5 3 1 360 358 358 357 356 355 353 352 351 351 349 346 343 341 339 335 330 325 319
36 36 37 38 39 37 31 24 20 23 24 23 21 20 20 18 17 16 14 13 12 12 13 13 13 13 12 10 9 7 6 4 3 1 359 358 357 356 355 353 351 350 349 347 345 343 339 336 334 332 327 321
35 34 35 37 37 33 27 22 23 27 26 24 23 23 21 19 17 16 15 14 14 14 15 15 15 14 13 11 10 8 7 5 3 1 359 357 356 356 354 352 350 349 348 347 345 342 340 340 338 337 336 331
33 32 33 34 35 29 25 24 25 28 27 25 24 23 21 19 17 17 17 16 16 16 16 17 16 15 14 12 10 8 7 6 4 2 359 357 356 355 353 352 351 350 347 346 345 343 343 343 341 342 344 344
30 29 29 31 30 23 23 24 25 28 26 24 22 21 19 17 17 18 18 17 17 17 17 17 16 15 13 12 10 8 7 5 4 2 359 357 355 354 353 352 351 350 348 345 345 344 344 344 342 344 346 345
22 24 19 14 11 12 17 19 21 23 22 20 17 16 16 16 17 18 18 19 18 18 17 16 15 14 12 11 10 8 6 4 3 1 359 357 355 354 354 353 352 350 347 345 344 343 343 343 344 344 344 341
5 4 357 348 348 358 7 12 16 18 17 14 11 11 13 15 16 17 19 20 20 19 18 16 14 13 11 10 9 8 6 4 2 1 359 357 355 355 354 353 353 351 348 345 343 343 342 341 342 341 339 338
350 341 338 335 335 344 357 6 9 10 10 6 3 4 8 12 13 14 17 19 20 19 17 15 13 11 10 9 8 7 6 4 2 1 359 358 356 355 354 353 353 353 349 344 343 342 341 340 340 338 336 336
337 327 324 326 329 337 349 359 1 360 359 357 355 357 2 8 9 11 14 16 17 17 16 14 12 10 9 7 6 5 5 4 2 0 359 358 358 356 355 353 353 353 350 345 344 342 340 339 339 336 335 335
328 321 320 325 331 337 343 348 350 349 349 348 348 350 355 0 5 8 10 12 13 13 13 11 10 8 7 6 4 3 4 4 3 1 359 358 358 357 355 355 353 353 351 346 343 342 340 338 336 334 335 336
330 325 326 329 332 335 336 337 338 340 339 340 342 344 347 353 359 4 6 7 7 8 9 9 8 7 6 4 2 2 2 2 3 1 359 358 358 358 356 355 354 353 351 347 343 341 341 338 335 334 336 338
333 332 331 331 330 330 329 330 329 330 333 334 337 339 341 346 352 358 1 1 1 3 5 5 5 5 4 3 1 1 0 1 2 2 1 359 358 358 356 354 353 351 349 347 343 340 341 341 337 335 337 338
332 331 330 329 329 328 326 326 325 325 329 330 332 334 336 340 345 352 354 354 356 358 0 1 1 2 1 0 360 359 360 0 1 2 1 360 358 357 356 355 352 351 348 345 344 342 339 339 337 334 336 338
334 329 328 328 328 327 324 322 322 324 326 327 328 329 331 335 339 344 347 348 350 353 355 357 357 359 359 358 358 357 358 360 1 1 1 0 359 357 356 355 353 351 347 346 348 345 337 335 338 337 336 338
339 333 329 327 325 323 322 321 321 321 323 324 324 325 328 331 333 337 340 341 344 347 350 352 353 355 356 356 356 356 357 359 1 1 0 360 359 358 357 355 353 351 348 350 350 346 339 334 335 340 338 338
343 336 329 324 321 319 319 319 318 319 320 321 321 322 323 324 327 329 332 335 337 340 343 346 348 350 353 354 354 354 355 358 360 0 0 359 357 358 357 355 354 351 350 351 349 346 347 340 335 341 341 337
345 339 331 323 318 315 314 314 315 316 316 317 318 319 319 318 320 322 325 328 330 334 337 340 343 345 348 351 352 351 352 355 358 359 359 359 357 356 355 354 353 353 352 352 350 349 353 351 333 334 339 340
347 342 336 330 323 316 312 311 312 311 311 314 316 316 316 314 315 317 320 322 324 327 330 334 336 340 343 346 348 348 348 350 353 356 358 357 357 354 353 353 351 353 353 351 352 352 351 345 330 328 335 336
346 343 340 336 330 322 315 310 307 306 307 310 312 313 312 312 311 312 314 316 319 321 324 328 330 333 337 340 343 345 345 346 347 350 354 355 355 353 352 351 349 350 352 350 352 355 350 340 335 323 322 327
346 344 343 340 335 329 322 314 308 304 305 307 308 308 308 309 309 308 309 310 313 316 318 322 324 327 331 334 338 340 341 342 342 343 347 350 351 351 350 349 348 348 350 350 350 351 351 344 327 309 321 329
346 345 345 343 340 335 328 322 313 307 305 304 303 303 303 305 307 306 306 307 308 311 314 316 318 320 324 328 331 335 337 338 338 338 338 342 345 347 347 346 345 345 346 347 346 347 346 341 322 314 325 330
346 346 347 346 345 340 334 328 321 313 307 303 300 300 300 302 304 305 305 305 305 307 309 311 313 315 318 322 325 328 331 332 334 334 332 334 337 340 342 342 341 341 342 343 343 342 339 336 329 322 325 322